Flag for Cyprus Weather past 2 weeks in Larnaca, Cyprus

Now
84 °F

Scattered clouds.


Feels Like: 88 °F
Forecast: 68 / 85 °F
Wind: 21 mph from Southwest

Location: Larnaca Airport

Current Time: Sep 16, 2014 at 2:44:40 PM

Latest Report: Sep 16, 2014 at 2:00 PM


Visibility: N/A

Pressure: 29.80 "Hg

Humidity: 62%

Dew point: 70 °F

Location of LarnacaLocation

Historic Weather in Larnaca — Graph

°F

Larnaca temperature yesterday

Maximum temperature yesterday: 90 °F (at 2:00 PM)
Minimum temperature yesterday: 70 °F (at 4:30 AM)
Average temperature yesterday: 80 °F

Past Weeks' High & Low Weather Summary

 TemperatureHumidityPressure
High91 °F (Sep 1, 2:00 PM)89% (Sep 4, 4:00 AM)29.92 "Hg (Sep 4, 4:00 AM)
Low70 °F (Sep 8, 4:30 AM)38% (Sep 15, 1:00 PM)29.65 "Hg (Sep 5, 6:00 PM)
Average81 °F65%29.80 "Hg
* Reported Sep 1 1:00 PM — Sep 16 1:30 PM, Larnaca, Weather by CustomWeather, © 2014

Note: Actual official high and low records may vary slightly from our data, if they occured in-between our weather recording intervals... More about our weather records

Advertising

Larnaca weather history for previous 24 hours

 ConditionsComfort  
Time TempWeatherWind HumidityBarometerVisibility
1:30 PM
Sep 16
84 °FScattered clouds.21 mph58%29.80 "HgN/A
1:00 PM88 °FPassing clouds.18 mph55%29.80 "HgN/A
12:30 PM88 °FPassing clouds.16 mph52%29.80 "HgN/A
12:00 PM86 °FPassing clouds.13 mph59%29.80 "HgN/A
11:30 AM86 °FPassing clouds.13 mph52%29.80 "HgN/A
11:00 AM84 °FPassing clouds.14 mph58%29.83 "HgN/A
10:30 AM84 °FPassing clouds.13 mph58%29.83 "HgN/A
10:00 AM84 °FPassing clouds.7 mph55%29.83 "HgN/A
9:30 AM84 °FPassing clouds.7 mph55%29.83 "HgN/A
9:00 AM82 °FPassing clouds.7 mph58%29.83 "HgN/A
8:30 AM81 °FPassing clouds.8 mph62%29.83 "HgN/A
8:00 AM77 °FPassing clouds.5 mph65%29.80 "HgN/A
7:30 AM73 °FPassing clouds.6 mph69%29.80 "HgN/A
7:00 AM72 °FPassing clouds.5 mph73%29.80 "HgN/A
6:30 AM70 °FPassing clouds.6 mph78%29.80 "HgN/A
6:00 AM70 °FPassing clouds.7 mph78%29.80 "HgN/A
5:30 AM70 °FClear.7 mph78%29.77 "Hg10 mi
5:00 AM70 °FClear.6 mph78%29.77 "Hg10 mi
4:00 AM73 °FPassing clouds.5 mph74%29.77 "HgN/A
3:30 AM73 °FClear.6 mph74%29.77 "Hg10 mi
3:00 AM73 °FClear.3 mph74%29.77 "Hg10 mi
2:30 AM73 °FClear.3 mph74%29.77 "Hg10 mi
2:00 AM75 °FPassing clouds.5 mph74%29.80 "HgN/A
1:30 AM75 °FPassing clouds.7 mph74%29.80 "HgN/A
1:00 AM75 °FPassing clouds.3 mph74%29.80 "HgN/A
12:30 AM77 °FPassing clouds.5 mph69%29.80 "HgN/A
12:00 AM77 °FPassing clouds.5 mph69%29.80 "HgN/A
11:30 PM
Sep 15
79 °FClear.1 mph65%29.80 "Hg10 mi
11:00 PM79 °FClear.No wind70%29.80 "Hg10 mi
10:30 PM77 °FClear.1 mph74%29.80 "Hg10 mi
10:00 PM79 °FPassing clouds.3 mph70%29.80 "HgN/A
9:30 PM79 °FPassing clouds.3 mph70%29.80 "HgN/A
9:00 PM81 °FClear.2 mph66%29.80 "Hg10 mi
8:30 PM81 °FPassing clouds.5 mph62%29.77 "HgN/A
8:00 PM82 °FPassing clouds.5 mph58%29.77 "HgN/A
7:30 PM82 °FPassing clouds.9 mph55%29.77 "HgN/A
7:00 PM82 °FPassing clouds.12 mph62%29.77 "HgN/A
6:30 PM84 °FPassing clouds.16 mph62%29.77 "HgN/A
6:00 PM84 °FPassing clouds.17 mph62%29.77 "HgN/A
5:30 PM86 °FPassing clouds.20 mph52%29.77 "HgN/A
5:00 PM86 °FPassing clouds.23 mph59%29.77 "HgN/A
4:30 PM86 °FPassing clouds.21 mph55%29.77 "HgN/A
4:00 PM88 °FPassing clouds.22 mph52%29.77 "HgN/A
3:30 PM88 °FPassing clouds.22 mph59%29.77 "HgN/A
3:00 PM86 °FPassing clouds.20 mph62%29.77 "HgN/A
2:30 PM86 °FPassing clouds.16 mph59%29.80 "HgN/A
2:00 PM90 °FPassing clouds.14 mph41%29.80 "HgN/A
Weather by CustomWeather, © 2014

See weather overviewHow to use our weather pages